Flag for Netherlands Weather past 2 weeks in 's-Hertogenbosch, Netherlands

Now
57 °F

Partly sunny.


Feels Like: 54 °F
Forecast: 46 / 55 °F
Wind: 15 mph from Southwest

Location: Volkel

Current Time: Oct 20, 2014 at 10:52:42 AM

Latest Report: Oct 20, 2014 at 10:25 AM


Visibility: N/A

Pressure: 30.01 "Hg

Humidity: 88%

Dew point: 54 °F

Location of 's-HertogenboschLocation

Historic Weather in 's-Hertogenbosch — Graph

°F

's-Hertogenbosch temperature yesterday

Maximum temperature yesterday: 73 °F (at 2:25 PM)
Minimum temperature yesterday: 59 °F (at 4:55 AM)
Average temperature yesterday: 64 °F

Past Weeks' High & Low Weather Summary

 TemperatureHumidityPressure
High73 °F (Oct 18, 2:55 PM)100% (Oct 5, 9:03 AM)30.09 "Hg (Oct 5, 9:03 AM)
Low41 °F (Oct 12, 7:25 AM)64% (Oct 7, 1:55 PM)29.47 "Hg (Oct 7, 8:25 AM)
Average57 °F89%29.80 "Hg
* Reported Oct 5 9:03 AM — Oct 20 9:25 AM, 's-Hertogenbosch, Weather by CustomWeather, © 2014

Note: Actual official high and low records may vary slightly from our data, if they occured in-between our weather recording intervals... More about our weather records

Advertising

's-Hertogenbosch weather history for previous 24 hours

 ConditionsComfort  
Time TempWeatherWind HumidityBarometerVisibility
9:25 AM
Oct 20
57 °FMore clouds than sun.13 mph88%30.01 "HgN/A
9:03 AM57 °FPartly cloudy.13 mph88%30.01 "HgN/A
8:25 AM57 °FMostly cloudy.14 mph88%29.98 "HgN/A
7:58 AM57 °FMostly cloudy.14 mph88%29.98 "HgN/A
7:25 AM55 °FPassing clouds.12 mph94%29.98 "HgN/A
6:55 AM57 °FPassing clouds.14 mph88%29.98 "HgN/A
5:25 AM57 °FPassing clouds.14 mph88%29.98 "HgN/A
4:55 AM57 °FPassing clouds.13 mph88%29.98 "HgN/A
4:25 AM57 °FPassing clouds.13 mph88%29.98 "HgN/A
3:55 AM57 °FPassing clouds.14 mph88%29.98 "HgN/A
3:25 AM57 °FPassing clouds.14 mph88%29.98 "HgN/A
2:55 AM59 °FPassing clouds.16 mph82%30.01 "HgN/A
2:25 AM59 °FOvercast.12 mph82%30.01 "HgN/A
1:55 AM59 °FPassing clouds.12 mph82%29.98 "HgN/A
1:25 AM59 °FPassing clouds.14 mph82%29.98 "HgN/A
12:55 AM59 °FMostly cloudy.15 mph82%29.98 "HgN/A
12:25 AM59 °FPassing clouds.13 mph82%29.98 "HgN/A
11:55 PM
Oct 19
59 °FMostly cloudy.14 mph82%30.01 "HgN/A
11:25 PM59 °FPassing clouds.13 mph82%30.01 "HgN/A
10:55 PM61 °FPassing clouds.12 mph77%30.01 "HgN/A
10:25 PM61 °FCool.12 mph77%29.98 "HgN/A
9:55 PM61 °FCool.12 mph83%29.98 "HgN/A
9:25 PM63 °FMild.13 mph77%29.95 "HgN/A
8:55 PM63 °FOvercast.13 mph77%29.95 "HgN/A
8:25 PM63 °FOvercast.15 mph77%29.95 "HgN/A
7:55 PM63 °FOvercast.13 mph83%29.95 "HgN/A
7:25 PM63 °FOvercast.13 mph88%29.95 "HgN/A
6:55 PM64 °FMostly cloudy.14 mph83%29.95 "HgN/A
6:25 PM64 °FOvercast.14 mph88%29.95 "HgN/A
5:55 PM64 °FDrizzle. Broken clouds.18 mph88%29.95 "HgN/A
5:25 PM68 °FLight rain. Overcast.13 mph83%29.92 "HgN/A
4:55 PM70 °FMostly cloudy.16 mph73%29.92 "HgN/A
4:25 PM70 °FPartly sunny.18 mph73%29.92 "HgN/A
3:55 PM70 °FBroken clouds.16 mph73%29.92 "HgN/A
3:25 PM72 °FBroken clouds.18 mph69%29.95 "HgN/A
2:55 PM72 °FOvercast.16 mph69%29.92 "HgN/A
2:25 PM73 °FScattered clouds.18 mph65%29.92 "HgN/A
1:55 PM72 °FPartly sunny.18 mph69%29.95 "HgN/A
1:25 PM72 °FBroken clouds.16 mph69%29.95 "HgN/A
12:55 PM72 °FMild.16 mph69%29.95 "HgN/A
12:25 PM70 °FMild.17 mph73%29.95 "HgN/A
11:55 AM70 °FMild.16 mph73%29.95 "HgN/A
11:25 AM68 °FMild.15 mph78%29.95 "HgN/A
10:55 AM66 °FOvercast.12 mph83%29.95 "HgN/A
10:25 AM64 °FMild.10 mph88%29.95 "HgN/A
Weather by CustomWeather, © 2014

See weather overviewHow to use our weather pages